Weather History for VTSG - December, 2013

Change the Weather History Date:

Saturday, December 28, 2013

  Actual Average (VTSP) Record (VTSP)
Temperature  
Mean Temperature 86 °F -  
Max Temperature 102 °F 88 °F 95 °F (2000)
Min Temperature 71 °F 74 °F 70 °F (2013)
Cooling Degree Days 22    
Growing Degree Days 36 (Base 50)    
Moisture  
Dew Point 68 °F    
Average Humidity 69    
Maximum Humidity 83    
Minimum Humidity 35    
Precipitation  
Precipitation 0.00 in - - ()
Sea Level Pressure  
Sea Level Pressure 29.86 in    
Wind  
Wind Speed 8 mph ()    
Max Wind Speed 12 mph    
Max Gust Speed -    
Visibility 4.9 miles    
Events      
Averages and records for this station are not official NWS values.
T = Trace of Precipitation, MM = Missing Value Source: Averaged Metar Reports

Daily Weather History Graph

Daily Weather History Graph

Search for Another Location

Airport or City:

Trip Planner

Search our weather history database for the weather conditions in past years. The results will help you decide how hot, cold, wet, or windy it might be!

Date:

Astronomy

Dec. 28, 2013 Rise Set
Actual Time 6:35 AM ICT 6:15 PM ICT
Civil Twilight 6:13 AM ICT 6:38 PM ICT
Nautical Twilight 5:46 AM ICT 7:04 PM ICT
Astronomical Twilight 5:20 AM ICT 7:30 PM ICT
Moon 2:09 AM ICT (12/28) 2:18 PM ICT (12/28)
Length of Visible Light 12h 24m
Length of Day
11h 39m
Waning Crescent, 24% of the Moon is Illuminated
Dec 28
Waning Crescent
Jan 1
New
Jan 8
First Quarter
Jan 16
Full
Jan 24
Last Quarter

Hourly Weather History & Observations

Time (ICT) Temp. Heat Index Dew Point Humidity Pressure Visibility Wind Dir Wind Speed Gust Speed Precip Events Conditions
12:00 AM 73.4 °F - 68.0 °F 83% 29.89 in 5.0 mi NNE 8.1 mph - N/A   Scattered Clouds
1:00 AM 73.4 °F - 68.0 °F 83% 29.89 in 5.0 mi NNE 8.1 mph - N/A   Scattered Clouds
2:00 AM 73.4 °F - 68.0 °F 83% 29.86 in 5.0 mi NNE 9.2 mph - N/A   Scattered Clouds
3:00 AM 73.4 °F - 68.0 °F 83% 29.83 in 4.3 mi NNE 10.4 mph - N/A   Scattered Clouds
6:00 AM 73.4 °F - 68.0 °F 83% 29.86 in 5.0 mi NNE 8.1 mph - N/A   Scattered Clouds
7:00 AM 71.6 °F - 66.2 °F 83% 29.86 in 3.1 mi NNE 8.1 mph - N/A   Mostly Cloudy
8:00 AM 73.4 °F - 66.2 °F 78% 29.89 in 3.7 mi NNE 8.1 mph - N/A   Mostly Cloudy
9:00 AM 77.0 °F - 66.2 °F 69% 29.92 in 4.3 mi NNE 11.5 mph - N/A   Scattered Clouds
10:00 AM 80.6 °F 83.2 °F 68.0 °F 65% 29.92 in 4.3 mi NNE 8.1 mph - N/A   Unknown
11:00 AM 102.2 °F 110.0 °F 69.8 °F 35% 29.92 in 5.0 mi NNE 8.1 mph - N/A   Scattered Clouds
12:00 PM 84.2 °F 87.3 °F 68.0 °F 58% 29.89 in 5.0 mi NNE 9.2 mph - N/A   Scattered Clouds
1:00 PM 86.0 °F 90.4 °F 69.8 °F 58% 29.86 in 5.0 mi NE 9.2 mph - N/A   Scattered Clouds
2:00 PM 87.8 °F 92.6 °F 69.8 °F 55% 29.83 in 5.6 mi NE 9.2 mph - N/A   Mostly Cloudy
3:00 PM 86.0 °F 89.4 °F 68.0 °F 55% 29.80 in 5.6 mi NE 10.4 mph - N/A   Mostly Cloudy
4:00 PM 86.0 °F 90.4 °F 69.8 °F 58% 29.80 in 5.6 mi NNE 9.2 mph - N/A   Mostly Cloudy
5:00 PM 84.2 °F 88.4 °F 69.8 °F 62% 29.80 in 5.0 mi NNE 6.9 mph - N/A   Mostly Cloudy
6:00 PM 80.6 °F 83.2 °F 68.0 °F 65% 29.80 in 5.0 mi NNE 9.2 mph - N/A   Mostly Cloudy
7:00 PM 78.8 °F - 68.0 °F 69% 29.83 in 5.6 mi NNE 8.1 mph - N/A   Mostly Cloudy
8:00 PM 77.0 °F - 68.0 °F 74% 29.89 in 5.0 mi NNE 8.1 mph - N/A   Mostly Cloudy
9:00 PM 77.0 °F - 68.0 °F 74% 29.89 in 5.0 mi NNE 6.9 mph - N/A   Mostly Cloudy
10:00 PM 75.2 °F - 68.0 °F 78% 29.92 in 5.0 mi NNE 9.2 mph - N/A   Mostly Cloudy